Location: Alulod
(14.2076°N, 120.8898°E)
Time: 03:31:46
(UTC+00:00)

USA 238 DEB - Pass Details

Date: 17 March 2026
Orbit: 883 x 1328 km, 63.4° (Epoch: 10 January)

Event Time Altitude Azimuth Distance (km) Brightness Sun altitude
Rises 10:32:56 0° 215° (SW) 3,477 6.9 -7.1°
Reaches altitude 10° 10:35:28 10° 220° (SW) 2,533 6.3 -7.7°
Maximum altitude 10:41:07 53° 296° (WNW) 1,091 4.2 -9.1°
Drops below altitude 10° 10:47:00 10° 12° (NNE) 2,636 5.7 -10.5°
Sets 10:49:41 0° 17° (NNE) 3,631 6.3 -11.2°
